World > North America > United States > Utah

Logan, Utah Regional Weather

Lat: 41.73N, Lon: 111.83W
Wx Zone: UTZ001Web Search

Helpful Tip: Abbreviated, 7 Day, 14 Day Forecasts. There is a weather forecast for every taste.

Feedback


°F Click to change Logan hourly weather to Imperial units.Click to change Logan hourly weather to Metric units. °C
Logan Weather Map
UTC Time: 4/11/2021, 15:04
Your Time:

Logan, UT Regional Weather

Expires:202104111500;;386647
ASUS45 KSLC 111410
RWRUT 

UTAH REGIONAL WEATHER ROUNDUP
NATIONAL WEATHER SERVICE SALT LAKE CITY UT
800 AM MDT SUN APR 11 2021


UTZ001>011-023>025-111500-

NORTHERN UTAH
  
CITY           SKY/WX    TMP DP  RH WIND       PRES   REMARKS
BRIGHAM CITY   SUNNY     35  12  39 N10G17    30.02R WCI  27          
HILL AFB       SUNNY     35  17  47 N13       29.99R WCI  26          
LOGAN          SUNNY     32  18  56 NW8       30.03R WCI  25          
OGDEN          SUNNY     38  17  42 N8        29.99R WCI  32          
SALT LAKE CITY SUNNY     39  21  48 NW18      30.00R WCI  30          
TOOELE VALLEY  SUNNY     39  28  65 NW5       30.02R                  
WENDOVER       CLEAR     35  12  38 N13       30.04R WCI  26          
HEBER CITY       N/A     37  16  41 W6        29.90R WCI  33          
WEST JORDAN    SUNNY     37  27  65 NW17      30.01R WCI  28          

$$


SKY/WX - Weather  TMP - Temperature  DP - Dew Point  RH - Relative Humidity
WIND - Wind Direction/Speed PRES - Barometric Pressure VSB - Visibility
WCI - Wind Chill Index E13G22 Wind - East Wind 13 mph/Gusts of 22 mph